RESURS O1

导读

RESURS-O1是独联体(CIS)于1994年11月4日08:00发射的遥感卫星,隶属于“资源”系列地球观测项目,主要用于获取陆地资源遥感影像,支持环境监测、农业估产、灾害评估与地质勘探等领域研究。该卫星延续了苏联对地观测技术体系,继承了早期Resurs系列卫星的设计框架,携带多光谱光学成像载荷,为独联体及全球提供地球表面观测数据,是冷战后独联体开展空间对地观测的重要早期卫星。

基本信息
目录编号:
23342
目录名称:
RESURS O1
国际标识:
1994-074A
轨道中心:
EARTH
卫星名称:
RESURS O1
卫星全名:
--
卫星状态:
在轨 (已飞行11588 天)
发射日期:
1994-11-04 UTC
国别 :
俄罗斯(独联体) (CIS)
星等 :
--
轨道信息
数据来源 国际轨道数据 AOE轨道数据
星历时间 2026-07-26T08:30:45+0800
1天前
查看轨道信息
2026-07-22T09:00:00+0800
5天前
查看轨道信息
半长轴 6991.318km 6991.328km
偏心率 0.0001183 0.0001304
轨道倾角 97.663° 97.665°
近地点辐角 72.132° 71.519°
升交点赤经 224.044° 220.216°
平近点角 288.002° 264.475°
近地点 612.353km 612.279km
远地点 614.009km 614.103km
周期 96.961分钟 96.961分钟
每日圈数 14.851292 14.851261
详细信息
使用方式:
暂无
2D轨道图
3D轨道图
轨道高度分析图
轨道倾角分析图
轨道综合分析图
查看轨道综合分析图